sat.trackr.live / text

‹ back to catalog

STARLINK-33710

NORAD 63434 · 2025-069B

PAYLOAD ACTIVE UNKNOWN

§ Identity

Operator
Country
US
Launch date
2025-04-04
Launch site
AFWTR
Launch vehicle
Mass (kg)
RCS (m²)

Purposes: comms

External: N2YO · Heavens-Above · Gunter

§ Orbital elements

Epoch: 2026-05-25T03:23:36.273120Z

Period
93.37 min
Inclination
53.1580°
Eccentricity
0.0001366
Mean motion
15.42169765 rev/d
Perigee alt
438.8 km
Apogee alt
440.6 km
Semi-major
6,817.8 km
B*
4.6921e-4
RAAN
144.9670°
Arg perigee
13.8209°
Mean anomaly
346.2834°
Rev number
6,514

§ Raw data

STARLINK-337101 63434U 25069B   26145.14139205  .00020067  00000+0  46921-3 0  99942 63434  53.1580 144.9670 0001366  13.8209 346.2834 15.42169765 65146

JSON: /api/v1/satellites/63434 · /tle

For live sub-satellite position, see the globe view (requires WebGL).

§ Visibility from observer

Set your observer location to see the next 7 days of passes ≥ 10°. The values pass through the URL so the page stays shareable.

No JS? Fill the form by hand. The geolocation button needs JavaScript.